SCP
0 0 -0 0 0 -0 -0 -0 0 0 0 0 0 0 0 0 0 0 0 -0 -0 -0 -0 0 -0 -0 -0 -0 -0 -0 -0 -0 -0 -0 -0 -0 -0 -0 -0 -0 -0 -0 -0 -0 -0 -0 -0 -0 -0
0 0 0 0 -0 -0 -0 0 0 0 0 0 0 0 0 0 0 0 0 -0 -0 -0 0 0 -0 -0 -0 -0 -0 -0 -0 -0 -0 -0 -0 -0 -0 -0 -0 -0 -0 -0 -0 -0 -0 -0 -0 -0 -0
0 0 0 -0 -0 0 0 0 0 0 0 0 0 0 0 0 0 0 0 0 0 0 0 0 -0 -0 -0 -0 -0 -0 -0 -0 -0 -0 -0 -0 -0 -0 -0 -0 -0 -0 -0 -0 -0 -0 -0 -0 -0
0 0 0 0 -0 0 0 0 0 0 0 0 0 0 -0 0 0 0 -0 -0 0 0 0 0 0 -0 -0 -0 -0 -0 -0 -0 -0 -0 -0 -0 -0 -0 -0 -0 -0 -0 -0 -0 -0 -0 -0 -0 -0
0 0 0 0 0 0 -0 -0 -0 0 0 0 0 0 -0 -0 -0 -0 -0 -0 -0 0 0 0 -0 -0 -0 -0 -0 -0 -0 -0 -0 -0 -0 -0 -0 -0 -0 -0 -0 -0 -0 -0 -0 -0 -0 -0 -0
0 0 0 0 0 -0 -0 -0 -0 0 0 0 0 0 0 -0 -0 -0 -0 -0 -0 -0 -0 -0 -0 -0 -0 -0 -0 -0 -0 -0 -0 -0 -0 -0 -0 -0 -0 -0 -0 -0 -0 -0 -0 -0 -0 -0 -0
0 0 0 0 0 -0 -0 -0 -0 -0 -0 -0 -0 0 0 0 0 -0 -0 -0 -0 -0 -0 -0 -0 -0 -0 -0 -0 -0 -0 -0 -0 -0 -0 -0 -0 -0 -0 -0 -0 -0 -0 -0 -0 -0 -0 -0 -0
0 0 0 0 0 0 -0 -0 -0 -0 -0 -0 -0 -0 -0 0 -0 -0 -0 -0 -0 -0 -0 -0 -0 -0 -0 -0 -0 -0 -0 -0 -0 -0 -0 -0 -0 -0 -0 -0 -0 -0 -0 -0 -0 -0 -0 -0 -0
0 0 0 0 0 0 -0 -0 0 0 -0 0 0 -0 -0 -0 -0 -0 0 0 -0 -0 -0 -0 -0 -0 -0 -0 -0 -0 -0 -0 -0 -0 -0 0 0 0 0 0 -0 -0 -0 -0 -0 -0 -0 -0 -0
0 0 0 0 0 0 0 0 0 0 0 0 0 0 -0 -0 -0 -0 -0 -0 -0 -0 -0 -0 -0 -0 -0 0 0 0 0 0 0 0 0 0 0 0 0 0 -0 -0 -0 -0 -0 -0 -0 0 0
0 0 0 0 0 0 0 0 0 0 0 0 -0 0 -0 -0 -0 -0 -0 -0 -0 -0 0 -0 -0 -0 -0 0 0 0 0 0 0 0 0 0 0 0 0 0 0 0 0 0 0 0 0 0 0
0 0 0 0 0 0 0 0 0 0 0 0 -0 -0 -0 -0 -0 -0 -0 -0 -0 -0 -0 -0 -0 -0 -0 0 0 0 0 0 0 0 0 0 0 0 0 0 0 0 0 0 0 0 0 0 0
0 0 0 0 0 0 0 0 0 0 0 0 0 0 -0 -0 -0 -0 -0 -0 -0 -0 -0 -0 -0 -0 -0 0 0 0 0 0 0 0 0 0 0 0 0 0 0 0 0 0 0 0 0 0 0
0 0 0 0 0 0 0 0 0 0 0 0 0 0 -0 -0 -0 0 0 -0 -0 -0 -0 -0 -0 -0 -0 0 0 0 0 0 0 0 0 0 0 0 0 0 0 0 0 0 0 0 0 0 0
0 0 0 0 0 0 0 0 0 0 0 0 0 0 0 0 0 -0 -0 -0 -0 -0 -0 -0 -0 -0 -0 -0 0 0 0 0 0 0 0 0 0 0 0 0 0 0 0 0 0 0 0 0 0
0 0 0 0 0 0 0 0 0 0 0 0 0 0 0 0 0 0 0 -0 0 0 -0 -0 -0 -0 -0 -0 0 0 0 0 0 0 0 0 0 0 0 0 0 0 0 0 0 0 0 0 0
0 0 0 0 0 0 0 0 0 0 0 0 0 0 0 0 0 0 0 0 -0 -0 -0 -0 -0 -0 -0 0 0 0 0 0 0 0 0 0 0 0 0 0 0 0 0 0 0 0 0 0 0
0 0 0 0 0 0 0 0 0 0 0 0 0 0 0 0 0 0 0 0 0 0 -0 -0 0 0 0 0 0 0 0 0 0 0 0 0 0 0 0 0 0 0 0 0 0 0 0 0 0
0 0 0 0 0 0 0 0 0 0 0 0 0 0 0 0 0 0 0 0 0 0 0 0 0 0 0 0 0 0 0 0 0 0 0 0 0 0 0 0 0 0 0 0 0 0 0 0 0
0 0 0 0 0 0 0 0 0 0 0 0 0 0 0 0 0 0 0 0 0 0 0 0 0 0 0 0 0 0 0 0 0 0 0 0 0 0 0 0 0 0 0 0 0 0 0 0 0
0 0 0 0 0 0 0 -0 0 0 0 0 0 0 0 0 0 0 0 0 0 0 0 0 0 0 0 0 0 0 0 0 0 0 0 0 0 0 0 0 0 0 0 0 0 0 0 0 0
0 0 0 0 0 0 0 -0 -0 0 0 0 0 0 0 0 0 0 0 0 0 0 0 0 0 0 0 0 0 0 0 0 0 0 0 0 0 0 0 0 0 0 0 0 0 0 0 0 0
0 0 0 0 0 0 0 0 -0 -0 0 0 0 0 0 0 0 0 0 0 0 0 0 0 0 0 0 0 0 0 0 0 0 0 0 0 0 0 0 0 0 0 0 0 0 0 0 0 0
0 0 0 0 0 0 0 0 -0 -0 -0 -0 0 0 0 0 0 0 0 0 0 0 0 0 0 0 0 0 0 0 0 0 0 0 0 0 0 0 0 0 0 0 0 0 0 0 0 0 0
0 0 0 0 0 0 0 0 0 0 0 0 0 0 0 0 0 0 0 0 0 0 0 0 0 0 0 0 0 0 0 0 0 0 0 0 0 0 0 0 0 0 0 0 0 0 0 0 0
0 0 0 0 0 0 0 0 0 0 0 0 0 0 0 0 0 0 0 0 0 0 0 0 0 0 0 0 0 0 0 0 0 0 0 0 0 0 0 0 0 0 0 0 0 0 0 0 0
0 0 0 0 0 0 0 0 0 0 0 0 0 0 0 0 0 0 -0 0 0 0 0 0 0 0 0 0 0 0 0 0 0 0 0 0 0 0 0 0 0 0 0 0 0 0 0 0 0
0 0 0 0 0 0 0 0 0 0 0 0 0 0 0 0 0 0 0 0 0 0 0 0 0 0 0 0 0 0 0 0 0 0 0 0 0 0 0 0 0 0 0 0 0 0 0 0 0
0 0 0 0 0 0 0 0 0 0 0 0 0 0 0 0 0 0 0 0 0 0 0 0 0 0 0 0 0 0 0 0 0 0 0 0 0 0 0 0 0 0 0 0 0 0 0 0 0
0 0 0 0 0 0 0 0 0 0 0 0 0 0 0 0 0 0 0 0 0 0 0 0 0 0 0 0 0 0 0 0 0 0 0 0 0 0 0 0 0 0 0 0 0 0 0 0 0
Wind_Speed_500mb
13 13 12 8 7 10 2 2 6 5 5 6 11 18 18 9 4 6 32 36 50 49 43 34 29 24 23 18 20 20 23 25 27 27 26 27 31 30 22 17 20 25 29 33 35 35 33 33 31
11 14 5 3 9 8 7 3 11 4 16 21 24 17 10 3 5 21 51 43 54 48 40 34 30 26 21 19 19 20 23 26 27 28 27 28 29 29 19 16 15 22 28 33 35 33 32 31 27
12 7 4 8 7 9 9 7 12 12 14 10 8 14 7 9 12 42 38 48 55 45 37 33 30 26 21 17 15 16 20 23 25 25 24 26 33 28 19 14 18 25 28 32 34 33 28 27 25
7 2 8 8 6 1 13 14 14 15 11 11 20 13 8 7 33 27 46 46 45 40 36 34 31 27 24 20 18 17 18 20 21 22 21 23 28 25 17 14 17 23 27 31 33 31 30 27 27
6 4 8 6 4 1 3 25 26 9 12 14 13 8 10 28 21 23 38 43 42 42 38 33 31 28 24 20 16 15 17 18 19 19 18 19 19 15 13 11 14 20 24 29 31 30 28 29 27
4 6 9 4 5 2 5 28 24 14 16 17 14 17 11 23 31 30 36 37 36 39 41 37 34 31 27 21 17 15 14 14 14 14 15 16 15 13 11 12 15 19 23 27 30 27 27 25 24
11 8 8 8 4 3 8 24 24 19 19 14 26 11 12 34 33 34 37 33 33 31 41 42 38 35 30 25 20 16 15 13 12 13 14 14 13 13 12 14 15 19 23 27 27 26 24 21 21
7 10 6 4 4 6 8 8 18 30 15 23 20 13 13 43 41 46 41 35 27 29 31 37 38 38 35 31 27 23 19 17 15 13 12 12 13 14 15 16 17 20 22 24 26 25 21 16 15
6 9 3 4 5 8 15 5 10 12 21 14 17 16 10 38 48 58 52 45 38 34 37 34 37 41 39 36 32 27 23 20 18 16 14 13 14 16 17 17 17 18 19 21 21 20 17 14 13
8 7 14 3 5 7 7 6 20 11 14 9 17 18 25 39 55 73 66 62 58 54 48 44 38 42 43 40 37 33 29 26 22 19 17 16 15 14 16 17 17 17 18 19 18 17 15 12 8
7 10 10 5 8 12 11 5 10 18 7 22 31 31 37 43 51 65 69 67 65 58 54 51 48 43 46 46 42 39 36 32 29 26 23 21 18 14 16 14 15 16 15 14 14 13 11 9 6
8 7 5 9 5 7 7 5 7 22 17 12 19 31 39 46 49 54 64 66 65 64 60 57 46 50 45 44 43 40 42 39 37 34 32 29 24 17 19 16 14 16 13 10 10 8 7 6 5
8 3 7 9 4 4 6 9 10 23 32 28 17 29 43 45 46 47 49 61 66 67 67 66 56 51 48 46 49 47 45 43 41 41 40 36 33 24 23 21 18 20 16 13 8 5 5 5 5
10 7 7 10 6 5 3 3 1 16 23 40 30 34 42 47 46 48 55 56 64 65 68 67 67 58 58 56 56 56 53 49 48 49 46 41 40 35 33 28 22 23 18 16 14 12 10 13 12
9 3 8 13 13 7 5 11 17 36 15 21 37 39 39 45 51 56 51 56 59 62 62 67 66 62 65 64 64 61 61 59 55 55 53 48 45 43 39 38 36 25 24 21 21 20 20 20 19
8 10 3 5 15 6 8 16 8 8 23 38 29 30 42 46 48 49 50 54 57 61 65 65 66 66 67 69 67 66 66 63 62 59 59 54 50 49 49 48 42 37 34 34 33 34 28 32 30
10 6 8 11 19 8 10 12 11 4 5 13 19 31 44 47 52 57 54 52 54 58 62 66 69 69 69 71 72 67 68 72 68 63 65 61 55 55 58 55 52 52 51 48 42 38 38 40 38
12 7 7 8 10 4 9 17 21 35 34 38 40 42 48 51 57 51 49 50 51 53 58 63 68 72 74 75 74 74 71 72 71 70 68 65 60 60 60 63 62 63 63 60 53 49 46 46 44
11 6 5 6 7 9 15 15 22 45 46 55 56 61 63 63 61 55 51 50 53 59 63 64 69 77 80 87 86 86 80 77 80 76 71 68 66 69 69 71 66 74 74 68 62 62 56 55 54
5 4 8 8 1 6 10 22 21 25 42 64 67 72 73 71 68 63 58 58 59 59 64 70 71 75 79 85 87 88 83 82 80 80 79 77 73 73 71 73 71 74 75 78 73 71 70 67 63
8 12 9 12 3 5 7 17 12 13 25 43 41 42 49 50 47 41 46 53 55 61 65 73 72 72 75 80 87 92 91 91 88 91 90 88 84 78 77 74 74 76 76 89 82 71 80 84 74
8 9 7 5 6 7 3 12 10 12 19 14 59 64 59 47 44 41 36 39 49 56 54 67 78 78 74 78 84 89 92 94 90 88 88 88 88 82 80 77 77 76 79 82 86 86 79 97 88
11 7 5 3 5 4 3 3 15 5 12 27 31 48 35 28 19 14 17 22 25 29 36 45 64 79 74 71 76 81 86 86 85 80 83 89 88 84 83 84 83 81 81 89 77 103 86 90 91
16 12 15 9 5 8 16 16 10 9 13 10 7 9 6 7 6 3 8 10 11 21 28 34 43 64 70 67 69 71 75 80 80 80 81 80 84 89 90 90 89 86 88 90 92 91 108 90 96
10 14 3 6 4 13 4 2 14 13 18 13 9 13 11 6 10 12 10 9 16 21 23 27 33 44 58 62 62 65 70 72 74 73 74 75 76 78 81 86 89 91 95 95 94 95 97 102 103
17 18 12 15 8 9 1 14 10 13 16 26 10 17 16 11 12 12 13 20 22 18 16 20 26 35 43 50 53 56 61 63 63 62 65 69 72 72 70 72 76 81 86 93 96 95 106 97 95
12 13 12 12 5 7 9 13 20 11 17 17 19 17 17 12 8 8 11 16 19 19 17 17 20 26 35 40 42 45 45 48 49 49 54 60 64 65 66 69 71 74 77 78 88 94 96 105 97
13 15 8 5 5 8 9 9 12 3 14 12 20 18 22 22 19 13 13 15 15 17 18 16 17 16 15 15 16 21 26 34 38 43 49 51 53 57 60 62 62 64 67 69 77 86 94 92 99
6 6 4 10 11 11 4 12 15 22 9 17 9 17 25 24 20 17 21 16 12 12 12 9 15 15 9 4 7 15 24 31 37 42 45 48 51 53 55 55 56 59 61 64 69 75 87 95 94
5 20 19 12 11 8 7 19 1 12 19 20 23 32 39 40 32 22 22 24 20 14 4 18 17 12 12 19 27 25 28 38 45 46 46 49 53 54 54 54 55 57 60 61 66 71 79 84 89
Wind_Direction_500mb
219 233 237 279 57 64 260 144 152 117 60 84 82 100 121 88 131 191 146 155 157 155 159 158 154 151 142 124 110 99 97 96 98 100 109 116 118 115 117 99 72 79 94 97 101 105 103 93 93
190 223 257 127 87 84 277 234 138 197 141 114 89 106 59 100 125 147 154 160 163 156 161 162 163 160 139 126 113 101 99 96 97 104 114 123 125 124 121 110 75 86 100 105 111 113 110 102 93
200 205 168 96 116 149 176 202 157 136 134 125 99 85 103 133 163 153 162 156 171 168 166 169 172 161 148 135 122 110 104 98 97 101 114 121 122 132 140 111 85 101 105 111 116 118 112 101 89
184 168 81 84 114 255 172 183 156 136 112 108 127 76 99 163 158 162 170 168 173 177 177 177 175 168 162 156 145 128 116 103 99 102 114 123 134 143 146 115 102 106 110 119 122 123 119 110 104
167 77 58 78 25 348 80 167 159 131 143 130 145 164 120 146 165 169 173 171 182 184 183 181 180 179 173 164 149 135 125 115 110 108 114 121 139 144 146 124 113 117 120 129 132 135 131 116 114
106 72 57 81 314 80 208 175 150 131 149 146 113 127 150 181 179 181 176 176 180 182 184 187 188 187 183 178 169 154 143 134 126 119 115 118 128 135 132 131 126 124 131 137 143 142 139 135 123
119 87 177 155 188 162 207 169 141 154 158 177 152 120 165 170 176 182 181 181 179 186 186 189 191 192 192 190 183 176 167 160 147 132 122 119 123 129 135 135 133 135 140 146 152 153 154 148 136
128 96 145 152 169 204 190 148 141 159 191 155 174 171 182 185 174 178 180 184 188 190 193 195 197 199 198 196 196 193 185 178 169 154 138 130 135 140 141 141 143 143 147 154 152 161 165 162 143
138 70 176 205 161 166 177 153 128 142 156 172 183 171 180 176 174 178 179 184 189 195 203 211 208 206 206 204 201 202 198 190 186 177 167 152 144 142 139 139 141 144 150 155 164 165 170 169 154
105 120 200 238 156 166 176 196 149 150 165 186 182 190 170 172 175 180 186 190 194 200 204 208 217 215 212 209 208 208 208 204 202 196 183 165 156 150 146 141 139 143 153 163 167 168 170 170 170
144 170 201 157 115 135 160 204 179 147 222 213 205 193 183 181 185 190 195 199 201 204 206 209 210 219 221 216 213 213 214 213 208 204 197 183 178 181 167 158 152 153 158 169 169 171 176 178 180
121 248 187 175 153 140 171 189 211 206 225 209 232 220 198 195 196 200 204 206 206 207 212 214 215 217 221 224 224 228 224 218 216 211 206 202 194 184 185 185 181 161 158 152 166 180 192 203 206
135 200 141 169 229 241 224 240 231 244 230 227 239 205 214 214 212 214 216 210 211 211 214 220 221 218 220 218 219 223 230 230 225 218 216 212 207 201 192 190 193 184 176 184 179 213 253 243 227
146 162 139 189 222 250 247 284 270 262 237 229 233 225 222 222 224 220 217 216 214 218 219 220 224 226 217 216 217 220 224 231 231 225 225 221 218 214 204 201 201 208 201 223 209 261 256 270 241
121 89 340 205 200 212 203 295 231 253 253 230 229 229 227 229 227 228 230 226 224 224 224 224 225 229 223 220 219 224 226 228 231 230 228 226 222 219 217 216 207 226 230 240 245 248 253 251 250
91 56 105 280 155 174 137 269 279 331 245 243 238 233 231 235 234 241 239 240 235 230 228 228 230 230 227 227 226 225 227 231 231 233 233 229 226 224 224 223 228 230 237 243 249 252 247 233 232
9 192 195 306 198 139 157 256 256 174 75 294 267 256 246 242 240 243 242 246 243 237 234 231 231 233 232 231 231 235 233 233 235 236 236 235 231 230 232 232 236 235 225 231 243 243 243 236 228
193 197 227 224 216 184 175 252 273 267 284 275 276 263 257 250 250 256 252 246 244 243 240 238 234 236 235 235 235 237 239 236 238 240 238 238 235 233 238 236 238 237 236 235 237 236 236 237 230
148 148 186 237 213 153 232 250 264 276 286 281 271 266 262 258 259 255 252 251 250 245 242 239 236 234 234 232 233 234 236 236 235 239 241 242 241 236 236 237 242 239 239 241 239 237 232 227 226
177 237 240 295 331 153 280 266 254 257 262 266 272 277 272 268 266 259 250 247 248 248 246 241 240 238 237 238 240 240 240 241 240 238 241 242 242 241 240 243 242 244 244 242 238 241 233 231 228
211 201 220 218 40 300 332 286 261 279 260 274 266 274 275 269 268 264 254 248 247 245 246 244 243 242 240 239 239 238 239 240 242 241 241 244 244 244 241 244 246 244 249 252 244 250 238 238 234
205 202 182 191 85 245 54 286 289 259 277 288 280 275 272 276 275 272 264 253 248 246 248 249 245 243 241 239 241 244 245 245 247 244 239 239 244 243 242 243 246 247 247 254 253 245 251 241 235
220 169 157 92 127 49 287 320 277 296 278 262 270 278 283 293 279 269 265 259 252 242 243 248 246 242 242 243 245 248 249 252 255 253 251 246 244 246 247 250 252 252 250 250 261 241 249 249 249
145 79 41 50 59 284 196 185 269 217 218 281 300 26 37 57 72 34 320 293 249 245 250 248 242 241 241 244 247 252 252 253 254 255 256 252 247 246 248 250 254 257 258 254 256 253 251 251 252
87 84 341 333 354 237 67 249 240 258 244 224 306 26 22 330 286 278 279 284 286 278 257 245 235 237 238 242 249 253 253 255 258 261 261 259 255 251 249 250 253 256 256 254 255 255 253 249 253
184 161 169 198 205 260 92 239 246 258 293 260 289 324 323 289 277 273 278 290 294 284 254 239 235 234 237 244 250 253 254 256 258 259 260 260 259 259 259 257 255 256 258 254 253 252 256 249 260
195 210 168 104 26 50 235 293 306 317 276 292 20 68 47 34 4 316 295 302 296 281 270 252 243 237 235 242 248 250 253 255 257 259 260 261 262 263 262 260 257 256 257 256 251 251 251 254 260
163 161 77 10 153 258 259 262 224 314 264 22 33 56 60 46 34 30 10 334 313 301 296 267 242 230 224 225 239 255 261 260 260 259 259 263 264 264 264 262 260 258 257 257 252 250 251 252 252
141 180 128 132 158 192 257 257 216 227 134 135 155 48 35 23 21 32 21 3 330 303 283 227 164 129 111 33 336 319 289 270 262 261 262 264 267 266 266 265 264 263 261 258 256 249 250 253 255
221 204 177 186 220 237 167 255 70 136 123 106 61 44 21 4 4 19 32 24 7 338 249 150 120 80 343 305 292 281 293 282 271 267 267 265 266 268 269 268 266 264 262 260 258 256 251 250 252
Wind_Speed_850mb
13 13 12 8 7 10 2 2 6 5 5 6 11 18 18 9 4 6 32 36 50 49 43 34 29 24 23 18 20 20 23 25 27 27 26 27 31 30 22 17 20 25 29 33 35 35 33 33 31
11 14 5 3 9 8 7 3 11 4 16 21 24 17 10 3 5 21 51 43 54 48 40 34 30 26 21 19 19 20 23 26 27 28 27 28 29 29 19 16 15 22 28 33 35 33 32 31 27
12 7 4 8 7 9 9 7 12 12 14 10 8 14 7 9 12 42 38 48 55 45 37 33 30 26 21 17 15 16 20 23 25 25 24 26 33 28 19 14 18 25 28 32 34 33 28 27 25
7 2 8 8 6 1 13 14 14 15 11 11 20 13 8 7 33 27 46 46 45 40 36 34 31 27 24 20 18 17 18 20 21 22 21 23 28 25 17 14 17 23 27 31 33 31 30 27 27
6 4 8 6 4 1 3 25 26 9 12 14 13 8 10 28 21 23 38 43 42 42 38 33 31 28 24 20 16 15 17 18 19 19 18 19 19 15 13 11 14 20 24 29 31 30 28 29 27
4 6 9 4 5 2 5 28 24 14 16 17 14 17 11 23 31 30 36 37 36 39 41 37 34 31 27 21 17 15 14 14 14 14 15 16 15 13 11 12 15 19 23 27 30 27 27 25 24
11 8 8 8 4 3 8 24 24 19 19 14 26 11 12 34 33 34 37 33 33 31 41 42 38 35 30 25 20 16 15 13 12 13 14 14 13 13 12 14 15 19 23 27 27 26 24 21 21
7 10 6 4 4 6 8 8 18 30 15 23 20 13 13 43 41 46 41 35 27 29 31 37 38 38 35 31 27 23 19 17 15 13 12 12 13 14 15 16 17 20 22 24 26 25 21 16 15
6 9 3 4 5 8 15 5 10 12 21 14 17 16 10 38 48 58 52 45 38 34 37 34 37 41 39 36 32 27 23 20 18 16 14 13 14 16 17 17 17 18 19 21 21 20 17 14 13
8 7 14 3 5 7 7 6 20 11 14 9 17 18 25 39 55 73 66 62 58 54 48 44 38 42 43 40 37 33 29 26 22 19 17 16 15 14 16 17 17 17 18 19 18 17 15 12 8
7 10 10 5 8 12 11 5 10 18 7 22 31 31 37 43 51 65 69 67 65 58 54 51 48 43 46 46 42 39 36 32 29 26 23 21 18 14 16 14 15 16 15 14 14 13 11 9 6
8 7 5 9 5 7 7 5 7 22 17 12 19 31 39 46 49 54 64 66 65 64 60 57 46 50 45 44 43 40 42 39 37 34 32 29 24 17 19 16 14 16 13 10 10 8 7 6 5
8 3 7 9 4 4 6 9 10 23 32 28 17 29 43 45 46 47 49 61 66 67 67 66 56 51 48 46 49 47 45 43 41 41 40 36 33 24 23 21 18 20 16 13 8 5 5 5 5
10 7 7 10 6 5 3 3 1 16 23 40 30 34 42 47 46 48 55 56 64 65 68 67 67 58 58 56 56 56 53 49 48 49 46 41 40 35 33 28 22 23 18 16 14 12 10 13 12
9 3 8 13 13 7 5 11 17 36 15 21 37 39 39 45 51 56 51 56 59 62 62 67 66 62 65 64 64 61 61 59 55 55 53 48 45 43 39 38 36 25 24 21 21 20 20 20 19
8 10 3 5 15 6 8 16 8 8 23 38 29 30 42 46 48 49 50 54 57 61 65 65 66 66 67 69 67 66 66 63 62 59 59 54 50 49 49 48 42 37 34 34 33 34 28 32 30
10 6 8 11 19 8 10 12 11 4 5 13 19 31 44 47 52 57 54 52 54 58 62 66 69 69 69 71 72 67 68 72 68 63 65 61 55 55 58 55 52 52 51 48 42 38 38 40 38
12 7 7 8 10 4 9 17 21 35 34 38 40 42 48 51 57 51 49 50 51 53 58 63 68 72 74 75 74 74 71 72 71 70 68 65 60 60 60 63 62 63 63 60 53 49 46 46 44
11 6 5 6 7 9 15 15 22 45 46 55 56 61 63 63 61 55 51 50 53 59 63 64 69 77 80 87 86 86 80 77 80 76 71 68 66 69 69 71 66 74 74 68 62 62 56 55 54
5 4 8 8 1 6 10 22 21 25 42 64 67 72 73 71 68 63 58 58 59 59 64 70 71 75 79 85 87 88 83 82 80 80 79 77 73 73 71 73 71 74 75 78 73 71 70 67 63
8 12 9 12 3 5 7 17 12 13 25 43 41 42 49 50 47 41 46 53 55 61 65 73 72 72 75 80 87 92 91 91 88 91 90 88 84 78 77 74 74 76 76 89 82 71 80 84 74
8 9 7 5 6 7 3 12 10 12 19 14 59 64 59 47 44 41 36 39 49 56 54 67 78 78 74 78 84 89 92 94 90 88 88 88 88 82 80 77 77 76 79 82 86 86 79 97 88
11 7 5 3 5 4 3 3 15 5 12 27 31 48 35 28 19 14 17 22 25 29 36 45 64 79 74 71 76 81 86 86 85 80 83 89 88 84 83 84 83 81 81 89 77 103 86 90 91
16 12 15 9 5 8 16 16 10 9 13 10 7 9 6 7 6 3 8 10 11 21 28 34 43 64 70 67 69 71 75 80 80 80 81 80 84 89 90 90 89 86 88 90 92 91 108 90 96
10 14 3 6 4 13 4 2 14 13 18 13 9 13 11 6 10 12 10 9 16 21 23 27 33 44 58 62 62 65 70 72 74 73 74 75 76 78 81 86 89 91 95 95 94 95 97 102 103
17 18 12 15 8 9 1 14 10 13 16 26 10 17 16 11 12 12 13 20 22 18 16 20 26 35 43 50 53 56 61 63 63 62 65 69 72 72 70 72 76 81 86 93 96 95 106 97 95
12 13 12 12 5 7 9 13 20 11 17 17 19 17 17 12 8 8 11 16 19 19 17 17 20 26 35 40 42 45 45 48 49 49 54 60 64 65 66 69 71 74 77 78 88 94 96 105 97
13 15 8 5 5 8 9 9 12 3 14 12 20 18 22 22 19 13 13 15 15 17 18 16 17 16 15 15 16 21 26 34 38 43 49 51 53 57 60 62 62 64 67 69 77 86 94 92 99
6 6 4 10 11 11 4 12 15 22 9 17 9 17 25 24 20 17 21 16 12 12 12 9 15 15 9 4 7 15 24 31 37 42 45 48 51 53 55 55 56 59 61 64 69 75 87 95 94
5 20 19 12 11 8 7 19 1 12 19 20 23 32 39 40 32 22 22 24 20 14 4 18 17 12 12 19 27 25 28 38 45 46 46 49 53 54 54 54 55 57 60 61 66 71 79 84 89
Wind_Direction_850mb
219 233 237 279 57 64 260 144 152 117 60 84 82 100 121 88 131 191 146 155 157 155 159 158 154 151 142 124 110 99 97 96 98 100 109 116 118 115 117 99 72 79 94 97 101 105 103 93 93
190 223 257 127 87 84 277 234 138 197 141 114 89 106 59 100 125 147 154 160 163 156 161 162 163 160 139 126 113 101 99 96 97 104 114 123 125 124 121 110 75 86 100 105 111 113 110 102 93
200 205 168 96 116 149 176 202 157 136 134 125 99 85 103 133 163 153 162 156 171 168 166 169 172 161 148 135 122 110 104 98 97 101 114 121 122 132 140 111 85 101 105 111 116 118 112 101 89
184 168 81 84 114 255 172 183 156 136 112 108 127 76 99 163 158 162 170 168 173 177 177 177 175 168 162 156 145 128 116 103 99 102 114 123 134 143 146 115 102 106 110 119 122 123 119 110 104
167 77 58 78 25 348 80 167 159 131 143 130 145 164 120 146 165 169 173 171 182 184 183 181 180 179 173 164 149 135 125 115 110 108 114 121 139 144 146 124 113 117 120 129 132 135 131 116 114
106 72 57 81 314 80 208 175 150 131 149 146 113 127 150 181 179 181 176 176 180 182 184 187 188 187 183 178 169 154 143 134 126 119 115 118 128 135 132 131 126 124 131 137 143 142 139 135 123
119 87 177 155 188 162 207 169 141 154 158 177 152 120 165 170 176 182 181 181 179 186 186 189 191 192 192 190 183 176 167 160 147 132 122 119 123 129 135 135 133 135 140 146 152 153 154 148 136
128 96 145 152 169 204 190 148 141 159 191 155 174 171 182 185 174 178 180 184 188 190 193 195 197 199 198 196 196 193 185 178 169 154 138 130 135 140 141 141 143 143 147 154 152 161 165 162 143
138 70 176 205 161 166 177 153 128 142 156 172 183 171 180 176 174 178 179 184 189 195 203 211 208 206 206 204 201 202 198 190 186 177 167 152 144 142 139 139 141 144 150 155 164 165 170 169 154
105 120 200 238 156 166 176 196 149 150 165 186 182 190 170 172 175 180 186 190 194 200 204 208 217 215 212 209 208 208 208 204 202 196 183 165 156 150 146 141 139 143 153 163 167 168 170 170 170
144 170 201 157 115 135 160 204 179 147 222 213 205 193 183 181 185 190 195 199 201 204 206 209 210 219 221 216 213 213 214 213 208 204 197 183 178 181 167 158 152 153 158 169 169 171 176 178 180
121 248 187 175 153 140 171 189 211 206 225 209 232 220 198 195 196 200 204 206 206 207 212 214 215 217 221 224 224 228 224 218 216 211 206 202 194 184 185 185 181 161 158 152 166 180 192 203 206
135 200 141 169 229 241 224 240 231 244 230 227 239 205 214 214 212 214 216 210 211 211 214 220 221 218 220 218 219 223 230 230 225 218 216 212 207 201 192 190 193 184 176 184 179 213 253 243 227
146 162 139 189 222 250 247 284 270 262 237 229 233 225 222 222 224 220 217 216 214 218 219 220 224 226 217 216 217 220 224 231 231 225 225 221 218 214 204 201 201 208 201 223 209 261 256 270 241
121 89 340 205 200 212 203 295 231 253 253 230 229 229 227 229 227 228 230 226 224 224 224 224 225 229 223 220 219 224 226 228 231 230 228 226 222 219 217 216 207 226 230 240 245 248 253 251 250
91 56 105 280 155 174 137 269 279 331 245 243 238 233 231 235 234 241 239 240 235 230 228 228 230 230 227 227 226 225 227 231 231 233 233 229 226 224 224 223 228 230 237 243 249 252 247 233 232
9 192 195 306 198 139 157 256 256 174 75 294 267 256 246 242 240 243 242 246 243 237 234 231 231 233 232 231 231 235 233 233 235 236 236 235 231 230 232 232 236 235 225 231 243 243 243 236 228
193 197 227 224 216 184 175 252 273 267 284 275 276 263 257 250 250 256 252 246 244 243 240 238 234 236 235 235 235 237 239 236 238 240 238 238 235 233 238 236 238 237 236 235 237 236 236 237 230
148 148 186 237 213 153 232 250 264 276 286 281 271 266 262 258 259 255 252 251 250 245 242 239 236 234 234 232 233 234 236 236 235 239 241 242 241 236 236 237 242 239 239 241 239 237 232 227 226
177 237 240 295 331 153 280 266 254 257 262 266 272 277 272 268 266 259 250 247 248 248 246 241 240 238 237 238 240 240 240 241 240 238 241 242 242 241 240 243 242 244 244 242 238 241 233 231 228
211 201 220 218 40 300 332 286 261 279 260 274 266 274 275 269 268 264 254 248 247 245 246 244 243 242 240 239 239 238 239 240 242 241 241 244 244 244 241 244 246 244 249 252 244 250 238 238 234
205 202 182 191 85 245 54 286 289 259 277 288 280 275 272 276 275 272 264 253 248 246 248 249 245 243 241 239 241 244 245 245 247 244 239 239 244 243 242 243 246 247 247 254 253 245 251 241 235
220 169 157 92 127 49 287 320 277 296 278 262 270 278 283 293 279 269 265 259 252 242 243 248 246 242 242 243 245 248 249 252 255 253 251 246 244 246 247 250 252 252 250 250 261 241 249 249 249
145 79 41 50 59 284 196 185 269 217 218 281 300 26 37 57 72 34 320 293 249 245 250 248 242 241 241 244 247 252 252 253 254 255 256 252 247 246 248 250 254 257 258 254 256 253 251 251 252
87 84 341 333 354 237 67 249 240 258 244 224 306 26 22 330 286 278 279 284 286 278 257 245 235 237 238 242 249 253 253 255 258 261 261 259 255 251 249 250 253 256 256 254 255 255 253 249 253
184 161 169 198 205 260 92 239 246 258 293 260 289 324 323 289 277 273 278 290 294 284 254 239 235 234 237 244 250 253 254 256 258 259 260 260 259 259 259 257 255 256 258 254 253 252 256 249 260
195 210 168 104 26 50 235 293 306 317 276 292 20 68 47 34 4 316 295 302 296 281 270 252 243 237 235 242 248 250 253 255 257 259 260 261 262 263 262 260 257 256 257 256 251 251 251 254 260
163 161 77 10 153 258 259 262 224 314 264 22 33 56 60 46 34 30 10 334 313 301 296 267 242 230 224 225 239 255 261 260 260 259 259 263 264 264 264 262 260 258 257 257 252 250 251 252 252
141 180 128 132 158 192 257 257 216 227 134 135 155 48 35 23 21 32 21 3 330 303 283 227 164 129 111 33 336 319 289 270 262 261 262 264 267 266 266 265 264 263 261 258 256 249 250 253 255
221 204 177 186 220 237 167 255 70 136 123 106 61 44 21 4 4 19 32 24 7 338 249 150 120 80 343 305 292 281 293 282 271 267 267 265 266 268 269 268 266 264 262 260 258 256 251 250 252